[[{"header":{"parameterUnit":"m.s-1","parameterCategory":1,"la1":30.2991,"la2":30.254,"lo1":-89.0895,"lo2":-89.0444,"dy":0.0017,"dx":0.0017,"nx":28,"ny":28,"refTime":"2023-10-06T03:00:00:Z","depth":0,"parameterNumber":2,"parameterNumberName":"U-component_of_WINDS"},"data":[0,0,0,0,0,0,0,0,0,0,0,0,0,0,0,0,0,0,0,0,0,0,0,0,0,0,0,0,0,0,0,0,0,0,0,0,0,0,0,0,0,0,0,0,0,0,0,0,0,0,0,0,0,0,0,0,0,0,-0.217,-0.2168,0,-0.1974,-0.1972,-0.1969,-0.183,-0.1829,-0.1828,-0.1827,-0.1626,-0.1622,-0.1618,0,0,0,0,0,0,0,0,0,0,0,0,0,-0.2427,-0.2423,-0.2171,-0.2168,-0.2166,-0.1974,-0.1971,-0.1969,-0.183,-0.1829,-0.1828,-0.1826,-0.1628,-0.1623,-0.1618,0,0,0,0,0,0,0,0,0,0,0,0,0,-0.2282,-0.2422,-0.2171,-0.2073,-0.2063,-0.1975,-0.1971,-0.1968,-0.1831,-0.1829,-0.1827,-0.1826,-0.1629,-0.1623,-0.1617,-0.161,0,0,-0.1597,-0.1594,0,0,0,0,0,0,0,0,-0.229,-0.2273,-0.209,-0.208,-0.2068,-0.1925,-0.1988,-0.1848,-0.1831,-0.1919,-0.1827,-0.1825,-0.1727,-0.1712,-0.1679,-0.1601,-0.1592,-0.1597,-0.1593,-0.159,-0.1588,0,0,0,0,0,0,0,-0.2301,-0.228,-0.2093,-0.2088,-0.2074,-0.204,-0.2017,-0.1961,-0.1835,-0.1911,-0.19,-0.1879,-0.1721,-0.1686,-0.1674,-0.1589,-0.1597,-0.1591,-0.1587,-0.1584,-0.1497,-0.1498,0,0,0,0,0,0,-0.2326,-0.229,-0.2099,-0.2087,-0.2177,-0.2037,-0.2011,-0.1972,-0.1835,-0.1812,-0.1881,-0.1873,-0.1698,-0.1681,-0.1666,-0.1649,-0.159,-0.1584,-0.158,-0.1495,-0.1497,-0.1499,0,0,0,0,0,0,-0.2332,-0.231,-0.2107,-0.2185,-0.2157,-0.2034,-0.1991,-0.1969,-0.1934,-0.1812,-0.1789,-0.1868,-0.1696,-0.1675,-0.1625,-0.164,-0.1581,-0.1575,-0.1493,-0.1496,-0.1498,-0.1616,0,0,0,0,0,0,-0.234,-0.2313,-0.2309,-0.2186,-0.2153,-0.2069,-0.1992,-0.1967,-0.1923,-0.1912,-0.1794,-0.1773,-0.1693,-0.1636,-0.1619,-0.163,-0.157,-0.1492,-0.1495,-0.1497,-0.161,-0.1622,-0.1632,0,0,0,0,0,-0.235,-0.235,-0.2309,-0.2287,-0.2145,-0.207,-0.2051,-0.1959,-0.1925,-0.192,-0.1842,-0.1777,-0.1642,-0.1632,-0.1612,-0.1621,-0.149,-0.1494,-0.1497,-0.1605,-0.162,-0.1632,0,0,0,0,0,0,-0.2477,-0.2332,-0.2285,-0.2246,-0.2172,-0.2047,-0.2037,-0.1977,-0.1911,-0.1903,-0.1791,-0.1766,-0.1728,-0.1669,-0.1661,-0.1608,-0.1558,-0.1558,-0.1647,-0.166,-0.1671,-0.1685,-0.1565,0,0,0,0,0,-0.2501,-0.2452,-0.2328,-0.2305,-0.227,-0.2161,-0.2125,-0.206,-0.1979,-0.1946,-0.1864,-0.1788,-0.1728,-0.1691,-0.1629,-0.1602,-0.1575,-0.1599,-0.161,-0.162,-0.162,-0.1602,-0.1612,-0.151,-0.151,-0.151,0,0,-0.2549,-0.2464,-0.244,-0.2329,-0.2263,-0.2216,-0.2135,-0.2088,-0.2051,-0.1939,-0.1887,-0.1825,-0.1732,-0.1694,-0.1673,-0.1644,-0.1643,-0.1624,-0.1633,-0.1628,-0.1607,-0.1617,-0.1625,-0.1513,-0.1512,-0.1512,0,0,-0.2612,-0.2543,-0.2517,-0.2453,-0.2356,-0.2283,-0.2277,-0.2162,-0.2116,-0.2062,-0.1977,-0.1933,-0.1832,-0.177,-0.1725,-0.1768,-0.1705,-0.1751,-0.1808,-0.1792,-0.18,-0.1806,-0.1821,-0.1828,-0.1752,-0.1753,-0.1753,0,-0.2684,-0.2608,-0.2511,-0.2468,-0.2422,-0.232,-0.2292,-0.2236,-0.2123,-0.2094,-0.2064,-0.1936,-0.1867,-0.1813,-0.1824,-0.1791,-0.1781,-0.1763,-0.1806,-0.1812,-0.1816,-0.1829,-0.1835,-0.1759,-0.1758,-0.1757,-0.1757,0,-0.2702,-0.2651,-0.2642,-0.2536,-0.2489,-0.2455,-0.2352,-0.2317,-0.2257,-0.2189,-0.2136,-0.2049,-0.1968,-0.1951,-0.1892,-0.1889,-0.1874,-0.1827,-0.1774,-0.1834,-0.1844,-0.1848,-0.1767,-0.1765,-0.1763,-0.1762,0,0,-0.2838,-0.268,-0.2678,-0.2629,-0.2515,-0.2473,-0.2436,-0.2356,-0.2328,-0.2255,-0.222,-0.2139,-0.2095,-0.2044,-0.1978,-0.1964,-0.2003,-0.1917,-0.1914,-0.1936,-0.1994,-0.203,-0.2037,-0.1962,-0.1962,-0.1963,-0.2002,0,-0.2883,-0.2807,-0.272,-0.2675,-0.2627,-0.253,-0.2496,-0.2424,-0.2359,-0.2309,-0.2238,-0.2182,-0.2128,-0.2097,-0.2079,-0.2002,-0.2013,-0.1998,-0.1928,-0.1927,-0.1953,-0.2043,-0.208,-0.2121,-0.2006,-0.2006,-0.2007,0,-0.2924,-0.2856,-0.2807,-0.2698,-0.2675,-0.2646,-0.2567,-0.2521,-0.2437,-0.2391,-0.2336,-0.2265,-0.2221,-0.2176,-0.2113,-0.2105,-0.2072,-0.2031,-0.203,-0.2019,-0.197,-0.2033,-0.2131,-0.2138,-0.2012,-0.2012,-0.2011,0,-0.3028,-0.2924,-0.2881,-0.2842,-0.2714,-0.2697,-0.2643,-0.2557,-0.2516,-0.2447,-0.2419,-0.2348,-0.2308,-0.2254,-0.2166,-0.2141,-0.2114,-0.2061,-0.2075,-0.2077,-0.2072,-0.2073,-0.2165,-0.2053,-0.2053,-0.2053,-0.2053,0,-0.3086,-0.306,-0.2926,-0.29,-0.2868,-0.2768,-0.2739,-0.2676,-0.2601,-0.2561,-0.2474,-0.2439,-0.2325,-0.2277,-0.2208,-0.2167,-0.215,-0.2112,-0.2094,-0.2119,-0.2124,-0.2095,-0.2089,-0.2054,-0.2054,-0.2054,-0.2053,0,-0.3195,-0.3105,-0.3052,-0.2935,-0.2906,-0.2887,-0.2788,-0.2759,-0.2691,-0.2642,-0.2624,-0.2517,-0.2455,-0.2363,-0.2274,-0.2228,-0.2198,-0.2169,-0.2227,-0.2216,-0.2234,-0.2234,-0.231,-0.2315,-0.2202,-0.2203,-0.2204,0,-0.3238,-0.3215,-0.3097,-0.3065,-0.3014,-0.2962,-0.2919,-0.2821,-0.278,-0.2684,-0.2667,-0.2599,-0.2539,-0.2447,-0.2361,-0.2293,-0.2261,-0.2292,-0.225,-0.2276,-0.226,-0.2263,-0.226,-0.2302,-0.2304,-0.2305,-0.2306,0,-0.3323,-0.328,-0.3222,-0.3149,-0.3101,-0.3039,-0.2972,-0.2951,-0.2838,-0.2797,-0.2734,-0.2688,-0.2598,-0.2531,-0.2452,-0.2397,-0.2333,-0.2321,-0.232,-0.2345,-0.2379,-0.236,-0.2253,-0.2319,-0.2318,-0.2317,-0.2316,-0.2316,-0.3399,-0.3375,-0.3289,-0.3227,-0.3167,-0.3108,-0.3075,-0.3003,-0.2948,-0.2867,-0.2812,-0.2752,-0.267,-0.2557,-0.2506,-0.2457,-0.243,-0.243,-0.2429,-0.243,-0.2439,-0.2388,-0.2443,-0.2442,-0.2442,-0.2441,-0.2441,0,-0.3479,-0.3419,-0.3364,-0.3274,-0.3227,-0.3172,-0.3096,-0.306,-0.3008,-0.2936,-0.288,-0.2807,-0.2743,-0.2654,-0.2583,-0.2562,-0.2531,-0.2547,-0.2547,-0.2535,-0.2468,-0.2475,-0.2573,-0.2573,-0.2573,-0.2573,-0.2573,-0.2573,-0.3515,-0.3471,-0.3419,-0.3345,-0.3284,-0.3224,-0.3186,-0.3131,-0.3073,-0.2997,-0.2943,-0.2885,-0.2806,-0.273,-0.2669,-0.2645,-0.2623,-0.2647,-0.2614,-0.2552,-0.254,-0.2528,-0.2534,-0.2644,-0.2644,-0.2685,-0.2685,-0.2685]},{"header":{"parameterUnit":"m.s-1","parameterCategory":1,"la1":30.2991,"la2":30.254,"lo1":-89.0895,"lo2":-89.0444,"dy":0.0017,"dx":0.0017,"nx":28,"ny":28,"refTime":"2023-10-06T03:00:00:Z","depth":0,"parameterNumber":3,"parameterNumberName":"V-component_of_WINDS"},"data":[0,0,0,0,0,0,0,0,0,0,0,0,0,0,0,0,0,0,0,0,0,0,0,0,0,0,0,0,0,0,0,0,0,0,0,0,0,0,0,0,0,0,0,0,0,0,0,0,0,0,0,0,0,0,0,0,0,0,1.222,1.222,0,1.226,1.226,1.2261,1.2302,1.2302,1.2303,1.2303,1.2342,1.2342,1.2343,0,0,0,0,0,0,0,0,0,0,0,0,0,1.2176,1.2176,1.222,1.222,1.2221,1.226,1.226,1.2261,1.2301,1.2302,1.2303,1.2303,1.2341,1.2342,1.2343,0,0,0,0,0,0,0,0,0,0,0,0,0,1.2203,1.2177,1.222,1.2246,1.2249,1.2259,1.226,1.2261,1.2301,1.2302,1.2303,1.2304,1.2341,1.2342,1.2343,1.233,0,0,1.2345,1.2345,0,0,0,0,0,0,0,0,1.2201,1.2205,1.2242,1.2244,1.2247,1.2277,1.2259,1.2284,1.2301,1.2281,1.2303,1.2304,1.2319,1.2322,1.2327,1.2332,1.2334,1.2345,1.2345,1.2346,1.2346,0,0,0,0,0,0,0,1.22,1.2203,1.2236,1.2242,1.2245,1.2255,1.2259,1.2264,1.2295,1.2283,1.2286,1.229,1.2321,1.2326,1.2328,1.2334,1.2345,1.2346,1.2346,1.2346,1.2328,1.2327,0,0,0,0,0,0,1.2194,1.2201,1.2234,1.2237,1.2226,1.2255,1.226,1.2266,1.2295,1.23,1.229,1.2292,1.2325,1.2327,1.233,1.2315,1.2346,1.2346,1.2347,1.2329,1.2328,1.2327,0,0,0,0,0,0,1.2193,1.2197,1.2233,1.222,1.2225,1.2255,1.2261,1.2267,1.2272,1.23,1.2305,1.229,1.2326,1.2329,1.2329,1.2317,1.2347,1.2347,1.233,1.2329,1.2327,1.2287,0,0,0,0,0,0,1.2192,1.2196,1.2192,1.222,1.2226,1.2232,1.226,1.2267,1.2274,1.2277,1.2302,1.2306,1.2326,1.2328,1.233,1.2319,1.2348,1.2331,1.2329,1.2328,1.2289,1.2284,1.228,0,0,0,0,0,1.219,1.218,1.2192,1.2196,1.2222,1.2232,1.2235,1.2259,1.2273,1.2268,1.2286,1.2306,1.2319,1.2328,1.233,1.2319,1.2332,1.233,1.2328,1.2291,1.2285,1.228,0,0,0,0,0,0,1.215,1.2184,1.2198,1.2196,1.2211,1.2239,1.2234,1.2252,1.2262,1.2265,1.2294,1.2299,1.2296,1.2308,1.2317,1.2307,1.2328,1.2326,1.2299,1.2294,1.2289,1.2285,1.2349,0,0,0,0,0,1.2141,1.2147,1.2176,1.2172,1.2178,1.2205,1.221,1.2227,1.2243,1.2249,1.2267,1.228,1.2287,1.2292,1.23,1.2292,1.2296,1.2285,1.228,1.2276,1.2274,1.2268,1.2263,1.232,1.232,1.232,0,0,1.2123,1.2142,1.2144,1.2164,1.2177,1.2181,1.221,1.2213,1.2216,1.2249,1.225,1.2264,1.2281,1.2276,1.2275,1.2286,1.2259,1.2274,1.227,1.227,1.2265,1.226,1.2255,1.2318,1.2319,1.2319,0,0,1.2091,1.2107,1.2104,1.2116,1.2136,1.2153,1.2152,1.2177,1.2187,1.2189,1.2214,1.2217,1.2229,1.224,1.2247,1.2217,1.2234,1.2219,1.2193,1.2187,1.2183,1.2179,1.2166,1.2161,1.2217,1.2216,1.2216,0,1.2065,1.2073,1.21,1.2101,1.2108,1.2139,1.2135,1.2146,1.2167,1.217,1.2183,1.2197,1.2211,1.2209,1.2201,1.2207,1.2205,1.2215,1.2181,1.2178,1.2174,1.2162,1.2158,1.2214,1.2215,1.2215,1.2215,0,1.2039,1.2044,1.2039,1.2058,1.2065,1.2064,1.2089,1.2093,1.2109,1.2125,1.2125,1.2143,1.2154,1.2155,1.2171,1.2154,1.2159,1.2176,1.2197,1.2166,1.2155,1.2151,1.2211,1.2212,1.2213,1.2213,0,0,1.1983,1.2016,1.2014,1.2022,1.2045,1.2049,1.2048,1.206,1.2061,1.2074,1.2073,1.2082,1.2097,1.2105,1.2122,1.2117,1.2089,1.2134,1.2135,1.2124,1.2069,1.2055,1.2049,1.2102,1.2101,1.2101,1.2067,0,1.1953,1.1955,1.1978,1.1972,1.1975,1.2004,1.2003,1.2017,1.2031,1.2035,1.2051,1.2056,1.2077,1.2081,1.2078,1.2094,1.2079,1.2097,1.2099,1.2099,1.2092,1.2044,1.2029,1.1996,1.2063,1.2062,1.2062,0,1.1919,1.193,1.1924,1.1945,1.1948,1.1947,1.1958,1.1962,1.1977,1.1988,1.1996,1.2015,1.2015,1.2035,1.2034,1.2045,1.2048,1.2056,1.2055,1.2055,1.2077,1.204,1.1986,1.198,1.2056,1.2056,1.2057,0,1.1875,1.1889,1.1886,1.1893,1.1919,1.1917,1.1927,1.1943,1.1948,1.1957,1.196,1.197,1.1974,1.198,1.2001,1.2015,1.1996,1.2019,1.2003,1.2002,1.1996,1.1996,1.194,1.2001,1.2001,1.2001,1.2002,0,1.1839,1.1834,1.1867,1.1865,1.186,1.1886,1.1879,1.1893,1.1906,1.1906,1.1932,1.1932,1.1961,1.1963,1.1979,1.1974,1.1976,1.1983,1.1987,1.198,1.1979,1.1981,1.1982,1.2,1.2,1.2001,1.2001,0,1.1789,1.1812,1.181,1.1835,1.184,1.1835,1.1855,1.1854,1.187,1.1869,1.1871,1.1895,1.1899,1.1921,1.193,1.1941,1.1929,1.1938,1.1923,1.1926,1.1907,1.1908,1.1849,1.1842,1.1909,1.1909,1.1908,0,1.1763,1.176,1.1783,1.1785,1.1794,1.1798,1.1802,1.1828,1.1831,1.1847,1.1843,1.1849,1.1855,1.186,1.1878,1.1884,1.1893,1.1872,1.1894,1.1886,1.189,1.1889,1.1887,1.1866,1.1866,1.1865,1.1864,0,1.1714,1.1725,1.1731,1.174,1.1745,1.1753,1.1763,1.1763,1.1791,1.1793,1.1798,1.1802,1.1811,1.1816,1.1825,1.1835,1.1853,1.1857,1.1854,1.1845,1.1835,1.1838,1.1908,1.1858,1.1859,1.1859,1.186,1.186,1.1674,1.1671,1.1686,1.1692,1.1702,1.171,1.1709,1.1725,1.1729,1.1738,1.1753,1.1754,1.1767,1.1782,1.179,1.1791,1.1802,1.1797,1.1795,1.1793,1.1788,1.1837,1.1793,1.1793,1.1793,1.1793,1.1793,0,1.1624,1.1635,1.1639,1.1652,1.1655,1.1674,1.1685,1.1686,1.1687,1.1699,1.1704,1.1707,1.1712,1.173,1.1736,1.1733,1.1741,1.1733,1.1732,1.1734,1.1779,1.178,1.1726,1.1726,1.1726,1.1726,1.1726,1.1726,1.1598,1.1593,1.1606,1.1606,1.1617,1.1619,1.1623,1.163,1.1639,1.1642,1.1646,1.1658,1.1671,1.1678,1.1682,1.1687,1.1687,1.1676,1.1683,1.1725,1.1731,1.1737,1.1739,1.1676,1.1676,1.1638,1.1638,1.1637]}]]